默认 日期 大小 文件数 浏览量 最新下载 xml
40 pdf磁力链接相关资源由用户搜索指令自动获取,结果来源于网络,本站不存储任何资料,亦不承担任何责任,请于24小时内删除,搜索到2662个磁力,用时11ms。
    ... Washington Post 12 06 2021.pdf": 16819766, "Modellenland Magazine June ... Times Magazine June 12 2021.pdf": 23171448, "The Guardian ... Review June 12 2021.pdf": 9793151, "The Washington ... Post June 13 2021.pdf": 51913513, "Financial Times Europe ...
创建时间: 2021-06-15 09:32:53 大小:986.38 MB 文件数量:80 热度:7 最近下载:2025-10-12 11:36:02
    ... The Guide 050621.pdf": 8232920, "4WDrive June 2021.pdf": 18043821, " ... Shindig June 2021.pdf": 113599369, "Soldier June 2021.pdf": 6766137, ... South East June 2021.pdf": 60126942, "Saudi Arabia ... Business Hubuserupload In.pdf": 7236782, "The Economist ...
创建时间: 2021-06-15 14:16:44 大小:1.21 GB 文件数量:80 热度:4 最近下载:2025-02-15 14:01:50
    ... PuzzleLife Sudoku Tricky April 2021.pdf": 29052442, "The Observer ... And Sound International April 2021.pdf": 19263352, "PuzzleLife Sudoku ... Complete Instagram Manual April 2021.pdf": 60873525, "The Times ... Magazine March April 2021.pdf": 24787443, "QPR Official ...
创建时间: 2021-06-15 14:38:17 大小:2.32 GB 文件数量:80 热度:3 最近下载:2025-01-27 08:20:02
    ... June 14 Th 2021.pdf": 3169095, "Learnhotenglishissue229june2021.pdf": 14651813, "Courrier International ... Traveler Uk July August 2021.pdf": 18996220, "National Geographic Traveller ... Russia June 2021.pdf": 23112140, "Teach Yourself Black ...
创建时间: 2021-06-15 18:41:44 大小:1.76 GB 文件数量:80 热度:4 最近下载:2025-01-19 16:31:04
    ... The Giving Plague.pdf": 111003, "Usmle Pretest Pathophysiology.pdf": 2471840, "DeLoura Game ... Problems Of Fourier Analysis Spiegel.pdf": 8508494, "Carey Gillam The Monsanto ... Encyclopedia Of Knitting Revised Edition.pdf": 27476779, "C Marina Marchese Howland ...
创建时间: 2021-06-15 21:47:35 大小:592.49 MB 文件数量:80 热度:6 最近下载:2025-03-18 11:01:50
    ... , "Energy And Environment.pdf": 18504318, "Karin Lowachee Warchild.pdf": 1006687, "Candy Making ... "The Cambridge Shakespeare Volume 5.pdf": 43072929, "Terry Pratchett Bromeliad 2 ... Gabriel 1986 Aspects Of Calculus.pdf": 33722734, "Kevin Killiany Battletech ...
创建时间: 2021-06-16 05:16:28 大小:369.69 MB 文件数量:80 热度:4 最近下载:2025-03-26 09:29:02
    ... 31 May 2021.pdf": 40084397, "2021 06 07thenewyorker.pdf": 29495521, " ... 14 June 2021.pdf": 58837654, "Drivingelectric May 2021.pdf": 107360602, "Ifr ... "Applemagazine June 04 2021.pdf": 160433629, "Financialtimesusajune22021.pdf": 14854501, "Forestry Journal ...
创建时间: 2021-06-16 09:53:43 大小:1.59 GB 文件数量:80 热度:6 最近下载:2025-03-08 06:20:03
    ... ": {"Abc 11 Junio 2021.pdf": 30730682, "Abc 13 Junio ... Aside Magazine Issue 01 2021.pdf": 23488997, "The Times ... 12 Th 2021.pdf": 4315475, "Sciencenews 1906userupload In.pdf": 6855012, ... Miss Utah 2021 Competition Magazine.pdf": 15041930, "Xl Semanal Espa ...
创建时间: 2021-06-16 13:32:37 大小:1.01 GB 文件数量:80 热度:5 最近下载:2025-01-27 00:59:10
    ... Based Genetic Programming And Applications.pdf": 1958660, "Ezeanaka Michael ... Architecture Machine Learning Projects 2021.pdf": 14351215, "Farinacci Bennie ... Roger C Steamer Cookbook 40 Quick Easy Delicious Steamer ... Roger C Steamer Cookbook 40 Quick Easy D 594. ...
创建时间: 2021-06-16 18:09:54 大小:732.9 MB 文件数量:80 热度:4 最近下载:2025-03-25 09:20:02
    ... Continuity Gilles Deleuzes Speculative Realism.pdf": 5627648, "Roberto Vitillo Understanding Distributed ... The Official Collection Issue 2 Pdf.pdf": 87008872, "Robin Marty New Handbook ...
创建时间: 2021-06-16 22:27:53 大小:716.4 MB 文件数量:80 热度:4 最近下载:2025-01-18 21:51:04
    ... Marks Calculations For Machine Design.pdf": 3475209, "Johnson Chad ... Bass Arpeggio Finder 2004.pdf": 17210582, "Fundamentals Of ... Ensuring Performance For Profit.pdf": 2698615, "Michael Spitzer ... Control Data Enabled Engineering.pdf": 9619570, "Michael William ...
创建时间: 2021-06-16 22:45:26 大小:487.06 MB 文件数量:80 热度:5 最近下载:2025-03-26 08:01:59
    ... Big Ideas Simply Explained .pdf": 40871484, "The Southern ... Computers - Craft Better Code.pdf": 11538788, "The Strangers We ... American Slang And Unconventional English.pdf": 9182729, "The Savvy ... Smoothie Cleanse recipes for wei (40) - Harvill, David.jpg": ...
创建时间: 2021-06-16 22:54:03 大小:636.54 MB 文件数量:80 热度:6 最近下载:2025-03-25 21:49:02
    ... "Dairy Processing And Quality Assurance.pdf": 7661186, "Real Mathematical Analysis ... Mechanical Prediction Of Thermochemical Data.pdf": 16812404, "Incredible Cross Sections ... Random Variables And Random Processes.pdf": 4609125, "Mushrooms Curative Growing ...
创建时间: 2021-06-16 23:07:29 大小:693.8 MB 文件数量:80 热度:5 最近下载:2025-03-25 18:08:03
    ... , "5001 Woodworking Projects.pdf": 59478565, "Causality And Explanation.pdf": 5279842, "Andrew Mayne ... , "The Junior Novel Calliope Glass.pdf": 13893657, "Gale Notable Sports Figures ... Become Naturally Attractive To Women.pdf": 2019239, "Martin Legros 21 ...
创建时间: 2021-06-16 23:11:11 大小:563.56 MB 文件数量:80 热度:5 最近下载:2025-03-25 17:33:02
    ... {"Logic For Everyone.pdf": 994187, "Daniel Garcia Scatter.pdf": 1079073, "Coordination ... Chemistry.pdf": 10160209, "Digital ... Hassani Mathematical Methods Using Mathematica.pdf": 6390762, "Osborne Principles ...
创建时间: 2021-06-16 23:36:59 大小:546.96 MB 文件数量:80 热度:5 最近下载:2025-01-02 06:45:11
    ... Magazines": {"Wapo 20210603.pdf": 22257304, "Kuier Junie 2021.pdf": 37014135, "Best ... "Peppermint Magazine May 2021.pdf": 70712449, "WritersForumIssue234July2021.pdf": 22566414, "Berks County ... Motorcycle News May 27 2021.pdf": 100366082, "British Photographic ...
创建时间: 2021-06-16 23:41:05 大小:1.85 GB 文件数量:80 热度:5 最近下载:2025-05-08 19:40:02
    ... {"Guitar Encyclopedia.pdf": 22853538, "Liz Williams Ikiryoh.pdf": 20090, "Fine ... Encyclopedia Of Plants And Flowers.pdf": 242465219, "The Rokkaia ... Eye Of The Universe Pdf.pdf": 3984993, "On Attachment ... Month By Month Retail Pdf.pdf": 92186460, "Javaheri David ...
创建时间: 2021-06-16 23:58:02 大小:873.6 MB 文件数量:80 热度:5 最近下载:2025-03-27 01:39:02
    ... Mundo 11 Junio 2021.pdf": 8264318, "Financialtimesmagazinejune52021.pdf": 17383208, "Dream Escape ... Magazine Issue 169 July 2021.pdf": 63426729, "Frankfurter Allgemeine Zeitung ... 08 06 2021.pdf": 22187487, "Frankfurter Allgemeine Zeitung ...
创建时间: 2021-06-17 05:46:49 大小:1.31 GB 文件数量:80 热度:5 最近下载:2025-02-09 05:23:04
    ... {"2021 06 21 Who.pdf": 78605443, "RockGemJuly2021.pdf": 27303709, "Wapo We 20210604 ... 07 01 Interni it.pdf": 214977602, "Contemporary Marketing.pdf": 135004859, "Der ... Weekly May 27 2021.pdf": 40273227, "Financialtimesusajune32021.pdf": 8543550, "La Raz ...
创建时间: 2021-06-17 06:36:26 大小:2.64 GB 文件数量:80 热度:13 最近下载:2025-03-08 13:18:02
    ... Lexpress 3 Juin 2021.pdf": 42703908, "TESMagazine4June2021.pdf": 40045558, "2021 ... Paris Review.pdf": 24907296, "Archaeology Julyaugust 2021.pdf": 34058616, ... North American Whitetail.pdf": 50879649, "AmericanMiniaturistIssue217June2021.pdf": 41706698, "Harper ...
创建时间: 2021-06-17 06:51:39 大小:2.03 GB 文件数量:80 热度:5 最近下载:2025-02-27 08:46:04